DELTA 1 DEB, 1312

Orbit data source: Space-Track

DELTA 1 DEB, 1312 is space debris in SSO originally from a launch on Fri, 22 Jan 1965 UTC launched from the Air Force Eastern Test Range (AFETR). Debris objects in space refer to the collection of defunct objects orbiting the Earth. Examples of debris include non-operational satellites, rocket bodies, and fragments generated from explosions, collisions, or faulty payload assembly.

Loading next visibility...
Identifier
1312, 1965-004C
Orbit
SSO
Last TLE update
1 week ago
Origin
Manufacturer
Unknown
Mission
Spacecraft
Bus & Motor
Unknown
Mass
~1 kg wet, ~1 kg dry
Launch date (UTC)
1965-01-22 (60 years ago)
Launch vehicle
Unknown
Launch site
Air Force Eastern Test Range (AFETR)
Object type
Payload
Rocket body
Debris
Shape & HBR
Box + 1 Cable, 3.5 m
Radar Cross Section
6.125 m², Small (<0.1 m²)

Expand to show TLE details & history

TLE from 1 week ago
0 DELTA 1 DEB
1 01312U 65004C   25183.94784443  .00000239  00000-0  25217-3 0  9998
2 01312  96.3402 341.8094 1117119 174.4376 187.0420 12.28134457683719
Epoch: 2025-07-02T22:44Z
TLE epoch observation values (Epoch: 2025-07-02T22:44:53.758Z)
Latitude
-0.00004°
Longitude
79.36378°
Altitude
2,441.285 km
Speed
6.34 km/s
True Right ascension
22h 47m 14s
True Declination
0° 00' 00"
Sunlit
Object was in daylight at epoch
Visualization orbit readout
Latitude
-41.08404°
Longitude
89.12381°
Altitude
2,407.751 km
Speed
6.371 km/s
Apparent Right ascension
23h 48m 52s
Apparent Declination
-40° 37' 12"
Sunlit
Object is in daylight
Visualization observer readout
Local Sidereal Time
12:19:29
Azimuth
99.337° ESE
Elevation
-84.119°
Doppler factor
1
Orbital elements
Apogee altitude
2,440.768 km
Perigee altitude
668.408 km
Semi-major axis
7,932.725 km
Eccentricity
0.11171
Inclination
96.3402°
RAAN
341.8094°
Arg. of periapsis
174.4376°
True anomaly
Unknown
Mean anomaly
187.042°
Eccentric anomaly
Unknown
Mean motion
3.07192 °/min
Orbital period
117.19 mins
BSTAR
0.00025217
Loading maneuver chart data...
Loading SW <> Apogee altitude chart data...
Loading historical data...
Loading historical data...
Loading historical data...
Loading historical data...
Loading historical data...
Loading historical data...
Loading historical data...
Other satellites on launch #4 in the year 1965 (1965-01-22 UTC)

DELTA 1 DEB Visibility forecast

Observer location: undefined°, undefined°

Span
Click to sort rows by Start time (UTC) header in descending order
Start Az.
Max El. time (UTC)
Max El. Az.
Max El.
End time (UTC)
End Az.
13 mins2025-07-11 08:19:19.195Z105.672° ESE2025-07-11 08:26:19.195Z65.652° ENE20.123°2025-07-11 08:32:19.195Z21.473° NNE
19 mins2025-07-11 10:11:19.195Z164.297° S2025-07-11 10:21:19.195Z133.068° SE44.832°2025-07-11 10:30:19.195Z350.704° N
14 mins2025-07-11 12:10:19.195Z226.631° WSW2025-07-11 12:17:19.195Z266.414° W21.485°2025-07-11 12:24:19.195Z316.047° NNW
7 mins2025-07-11 22:32:19.195Z33.627° NE2025-07-11 22:35:19.195Z97.472° ESE33.058°2025-07-11 22:39:19.195Z165.628° S
|